DECAYED

STARLINK-30317, 57675 (Decayed)

Orbit data source: Space-Track

STARLINK-30317, 57675 was a payload satellite owned by SpaceX/Seattle (US) in LEO that was launched on Tue, 22 Aug 2023 UTC via an FALCON 9 launch vehicle from the Air Force Western Test Range (AFWTR). Payload-class satellites include a variety of spacecraft equipped with specific instruments for various scientific and technological missions. These include communications satellites like Starlink; space stations such as the ISS; scientific satellites like the Hubble; Earth observation satellites from companies like Planet Labs, Umbra, and HawkEye 360; GPS; miniature CubeSats for education and research; and military/defense satellites.

Not visible in the next 10 days
Identifier
57675, 2023-124N
Orbit
Decayed
Country
Flag of USUS
Related business
Manufacturer
SpaceX/Seattle
Mission
Decayed Commercial Communications
Bus & Motor
STARLINK V2M, Unknown motor
Mass
730 kg wet, ~700 kg dry
Launch date (UTC)
2023-08-22 (3 years ago)
Launch vehicle
FALCON 9
Launch site
Air Force Western Test Range (AFWTR)
Object type
Payload
Rocket body
Debris
Shape & HBR
Box + 2 Pan, 17.7 m
Radar Cross Section
33.884 m², Large (>1 m²)

Expand to show TLE details & history
Last TLE update: 7 months ago

TLE from 7 months ago
0 STARLINK-30317
1 57675U 23124N   25330.58587369  .01397597  13518-2  13695-2 0  9993
2 57675  53.1299 297.3805 0001302 166.7936 193.3134 16.11125247128172
Epoch: 2025-11-26T14:03Z
TLE epoch observation values (Epoch: 2025-11-26T14:03:39.486Z)
Latitude
-0.00001°
Longitude
20.71095°
Altitude
245.525 km
Speed
7.76 km/s
True Right ascension
19h 49m 31s
True Declination
0° 00' 00"
Sunlit
Object was in daylight at epoch
Visualization orbit readout
Latitude
Unknown
Longitude
Unknown
Altitude
Unknown
Speed
Unknown
Apparent Right ascension
Unknown
Apparent Declination
Unknown
Sunlit
N/A
Visualization observer readout
Local Sidereal Time
21:29:16
Azimuth
Unknown
Elevation
Unknown
Doppler factor
Unknown
Orbital elements
Apogee altitude
244.891 km
Perigee altitude
243.166 km
Semi-major axis
6,622.165 km
Eccentricity
0.00013
Inclination
53.1299°
RAAN
297.3805°
Arg. of periapsis
166.7936°
True anomaly
193.30996°
Mean anomaly
193.3134°
Eccentric anomaly
193.31168°
Mean motion
4.02757 °/min
Orbital period
89.38 mins
BSTAR
0.0013695
Loading maneuver chart data...
Computing Atmospheric mass density...
Loading historical data...
Loading historical data...
Loading historical data...
Loading historical data...
Loading historical data...
Loading historical data...
Loading historical data...

Documentation

Showing up to 5 results
|